Time,TemperatureF,DewpointF,PressureIn,WindDirection,WindDirectionDegrees,WindSpeedMPH,WindSpeedGustMPH,Humidity,HourlyPrecipIn,Conditions,Clouds,dailyrainin,SoftwareType,DateUTC
2013-04-24 00:01:00,36.2,34.0,29.97,NNW,344,3.1,6.3,92,0.00,,,0.00,WUHU216HW,2013-04-24 05:01:00,
2013-04-24 00:06:00,36.2,34.0,29.97,North,0,6.3,6.3,92,0.00,,,0.00,WUHU216HW,2013-04-24 05:06:00,
2013-04-24 00:11:00,36.4,34.2,29.98,North,0,4.9,8.9,92,0.00,,,0.00,WUHU216HW,2013-04-24 05:11:00,
2013-04-24 00:16:00,36.4,34.2,29.98,North,0,2.5,8.9,92,0.00,,,0.00,WUHU216HW,2013-04-24 05:16:00,
2013-04-24 00:21:00,36.4,34.2,29.98,North,7,4.5,6.5,92,0.00,,,0.00,WUHU216HW,2013-04-24 05:21:00,
2013-04-24 00:26:00,36.4,34.2,29.98,NNW,338,4.5,6.5,92,0.00,,,0.00,WUHU216HW,2013-04-24 05:26:00,
2013-04-24 00:31:00,36.4,34.2,29.98,NNE,23,8.1,8.1,92,0.00,,,0.00,WUHU216HW,2013-04-24 05:31:00,
2013-04-24 00:36:00,36.4,34.2,29.98,North,350,4.3,8.1,92,0.00,,,0.00,WUHU216HW,2013-04-24 05:36:00,
2013-04-24 00:41:00,36.4,34.2,29.98,North,0,2.5,5.4,92,0.00,,,0.00,WUHU216HW,2013-04-24 05:41:00,
2013-04-24 00:46:00,36.4,34.2,29.98,North,0,3.7,5.4,92,0.00,,,0.00,WUHU216HW,2013-04-24 05:46:00,
2013-04-24 00:51:00,36.4,33.9,29.98,North,351,3.3,4.9,91,0.00,,,0.00,WUHU216HW,2013-04-24 05:51:00,
2013-04-24 00:56:00,36.4,33.9,29.99,North,0,4.9,5.4,91,0.00,,,0.00,WUHU216HW,2013-04-24 05:56:00,
2013-04-24 01:01:00,36.4,33.9,29.99,North,350,3.2,5.4,91,0.00,,,0.00,WUHU216HW,2013-04-24 06:01:00,
2013-04-24 01:06:00,36.4,33.9,29.99,North,0,2.9,5.4,91,0.00,,,0.00,WUHU216HW,2013-04-24 06:06:00,
2013-04-24 01:11:00,36.4,33.9,29.99,North,0,4.5,5.1,91,0.00,,,0.00,WUHU216HW,2013-04-24 06:11:00,
2013-04-24 01:16:00,36.4,33.9,29.99,North,354,0.8,4.5,91,0.00,,,0.00,WUHU216HW,2013-04-24 06:16:00,
2013-04-24 01:21:00,36.4,33.9,29.99,North,0,1.1,5.4,91,0.00,,,0.00,WUHU216HW,2013-04-24 06:21:00,
2013-04-24 01:26:00,36.4,33.9,29.99,NNW,344,1.3,5.4,91,0.00,,,0.00,WUHU216HW,2013-04-24 06:26:00,
2013-04-24 01:31:00,36.4,33.9,29.99,NNE,23,3.8,3.8,91,0.00,,,0.00,WUHU216HW,2013-04-24 06:31:00,
2013-04-24 01:36:00,36.4,33.9,29.99,NNW,338,3.0,4.0,91,0.00,,,0.00,WUHU216HW,2013-04-24 06:36:00,
2013-04-24 01:41:00,36.4,33.9,30.00,NNW,338,3.4,5.4,91,0.00,,,0.00,WUHU216HW,2013-04-24 06:41:00,
2013-04-24 01:46:00,36.4,33.7,30.00,NNW,338,2.5,5.4,90,0.00,,,0.00,WUHU216HW,2013-04-24 06:46:00,
2013-04-24 01:51:00,36.4,33.7,30.00,North,6,2.7,3.4,90,0.00,,,0.00,WUHU216HW,2013-04-24 06:51:00,
2013-04-24 01:56:00,36.4,33.7,30.00,NNW,338,4.3,4.3,90,0.00,,,0.00,WUHU216HW,2013-04-24 06:56:00,
2013-04-24 02:01:00,36.5,33.8,30.01,WNW,293,4.3,4.3,90,0.00,,,0.00,WUHU216HW,2013-04-24 07:01:00,
2013-04-24 02:06:00,36.5,33.8,30.01,NNW,338,1.8,4.3,90,0.00,,,0.00,WUHU216HW,2013-04-24 07:06:00,
2013-04-24 02:11:00,36.5,33.8,30.00,North,0,7.6,7.6,90,0.00,,,0.00,WUHU216HW,2013-04-24 07:11:00,
2013-04-24 02:16:00,36.5,33.8,30.00,NNE,23,5.8,7.6,90,0.00,,,0.00,WUHU216HW,2013-04-24 07:16:00,
2013-04-24 02:21:00,36.5,33.8,30.00,North,0,2.5,5.8,90,0.00,,,0.00,WUHU216HW,2013-04-24 07:21:00,
2013-04-24 02:26:00,36.5,33.8,30.00,NW,315,2.0,4.7,90,0.00,,,0.00,WUHU216HW,2013-04-24 07:26:00,
2013-04-24 02:31:00,36.5,33.8,30.00,North,0,5.1,5.8,90,0.00,,,0.00,WUHU216HW,2013-04-24 07:31:00,
2013-04-24 02:36:00,36.5,33.6,29.99,North,0,5.3,6.7,89,0.00,,,0.00,WUHU216HW,2013-04-24 07:36:00,
2013-04-24 02:41:00,36.5,33.8,29.99,NNE,13,3.0,6.7,90,0.00,,,0.00,WUHU216HW,2013-04-24 07:41:00,
2013-04-24 02:46:00,36.5,33.6,29.98,NNW,347,2.3,4.0,89,0.00,,,0.00,WUHU216HW,2013-04-24 07:46:00,
2013-04-24 02:51:00,36.5,33.6,29.98,NW,315,5.1,5.1,89,0.00,,,0.00,WUHU216HW,2013-04-24 07:51:00,
2013-04-24 02:56:00,36.5,33.6,29.99,NNW,348,4.3,5.1,89,0.00,,,0.00,WUHU216HW,2013-04-24 07:56:00,
2013-04-24 03:01:00,36.5,33.6,29.99,NNW,343,1.9,4.7,89,0.00,,,0.00,WUHU216HW,2013-04-24 08:01:00,
2013-04-24 03:06:00,36.5,33.6,29.98,NNE,23,3.6,3.6,89,0.00,,,0.00,WUHU216HW,2013-04-24 08:06:00,
2013-04-24 03:11:00,36.5,33.8,29.98,North,0,2.5,3.6,90,0.00,,,0.00,WUHU216HW,2013-04-24 08:11:00,
2013-04-24 03:17:00,36.5,33.8,29.99,NE,45,2.0,2.5,90,0.00,,,0.00,WUHU216HW,2013-04-24 08:17:00,
2013-04-24 03:22:00,36.5,33.8,29.99,NNE,23,3.4,4.7,90,0.00,,,0.00,WUHU216HW,2013-04-24 08:22:00,
2013-04-24 03:27:00,36.5,33.8,29.99,North,1,3.0,4.7,90,0.00,,,0.00,WUHU216HW,2013-04-24 08:27:00,
2013-04-24 03:32:00,36.4,33.7,29.99,NNE,23,2.2,4.3,90,0.00,,,0.00,WUHU216HW,2013-04-24 08:32:00,
2013-04-24 03:37:00,36.4,33.7,29.99,North,356,2.7,7.6,90,0.00,,,0.00,WUHU216HW,2013-04-24 08:37:00,
2013-04-24 03:42:00,36.4,33.7,29.99,North,354,0.9,7.6,90,0.00,,,0.00,WUHU216HW,2013-04-24 08:42:00,
2013-04-24 03:47:00,36.4,33.7,29.99,NNW,339,2.7,4.7,90,0.00,,,0.00,WUHU216HW,2013-04-24 08:47:00,
2013-04-24 03:52:00,36.4,33.7,29.98,North,359,2.5,5.4,90,0.00,,,0.00,WUHU216HW,2013-04-24 08:52:00,
2013-04-24 03:57:00,36.4,33.7,29.99,NW,315,2.5,5.4,90,0.00,,,0.00,WUHU216HW,2013-04-24 08:57:00,
2013-04-24 04:02:00,36.5,33.8,30.00,NW,321,1.8,3.6,90,0.00,,,0.00,WUHU216HW,2013-04-24 09:02:00,
2013-04-24 04:07:00,36.5,34.1,30.01,NNE,23,1.6,2.9,91,0.00,,,0.00,WUHU216HW,2013-04-24 09:07:00,
2013-04-24 04:12:00,36.4,33.9,30.01,NW,315,3.8,8.1,91,0.00,,,0.00,WUHU216HW,2013-04-24 09:12:00,
2013-04-24 04:17:00,36.4,33.7,30.00,NNW,338,4.7,8.1,90,0.00,,,0.00,WUHU216HW,2013-04-24 09:17:00,
2013-04-24 04:22:00,36.4,33.7,29.99,NNW,338,1.6,5.4,90,0.00,,,0.00,WUHU216HW,2013-04-24 09:22:00,
2013-04-24 04:27:00,36.5,33.8,30.00,NW,318,1.8,4.7,90,0.00,,,0.00,WUHU216HW,2013-04-24 09:27:00,
2013-04-24 04:32:00,36.5,33.8,30.02,NW,315,4.0,4.5,90,0.00,,,0.00,WUHU216HW,2013-04-24 09:32:00,
2013-04-24 04:37:00,36.5,33.8,30.04,WNW,301,2.0,5.4,90,0.00,,,0.00,WUHU216HW,2013-04-24 09:37:00,
2013-04-24 04:42:00,36.5,33.8,30.03,NW,315,2.7,5.4,90,0.00,,,0.00,WUHU216HW,2013-04-24 09:42:00,
2013-04-24 04:47:00,36.5,33.8,30.04,NW,315,1.9,5.1,90,0.00,,,0.00,WUHU216HW,2013-04-24 09:47:00,
2013-04-24 04:52:00,36.4,33.9,30.04,WNW,300,1.6,4.0,91,0.00,,,0.00,WUHU216HW,2013-04-24 09:52:00,
2013-04-24 04:57:00,36.4,33.9,30.04,WNW,301,2.0,4.9,91,0.00,,,0.00,WUHU216HW,2013-04-24 09:57:00,
2013-04-24 05:02:00,36.0,33.6,30.05,NW,316,2.7,5.1,91,0.02,,,0.02,WUHU216HW,2013-04-24 10:02:00,
2013-04-24 05:07:00,35.6,33.2,30.05,North,349,3.4,5.1,91,0.02,,,0.02,WUHU216HW,2013-04-24 10:07:00,
2013-04-24 05:12:00,35.5,33.0,30.05,West,270,4.3,5.8,91,0.02,,,0.02,WUHU216HW,2013-04-24 10:12:00,
2013-04-24 05:17:00,35.3,32.9,30.05,North,0,11.4,11.4,91,0.02,,,0.02,WUHU216HW,2013-04-24 10:17:00,
2013-04-24 05:22:00,35.1,32.7,30.06,NW,315,3.4,11.4,91,0.02,,,0.02,WUHU216HW,2013-04-24 10:22:00,
2013-04-24 05:27:00,34.9,32.5,30.06,NNW,338,3.6,11.4,91,0.02,,,0.02,WUHU216HW,2013-04-24 10:27:00,
2013-04-24 05:32:00,34.9,32.5,30.06,WNW,288,3.5,7.2,91,0.02,,,0.02,WUHU216HW,2013-04-24 10:32:00,
2013-04-24 05:37:00,34.7,32.3,30.06,NNW,338,5.3,8.1,91,0.02,,,0.02,WUHU216HW,2013-04-24 10:37:00,
2013-04-24 05:42:00,34.6,32.1,30.06,NNW,338,2.2,8.1,91,0.02,,,0.02,WUHU216HW,2013-04-24 10:42:00,
2013-04-24 05:47:00,34.6,32.1,30.06,NNW,338,3.6,6.3,91,0.02,,,0.02,WUHU216HW,2013-04-24 10:47:00,
2013-04-24 05:52:00,34.6,32.1,30.06,NW,326,2.9,5.4,91,0.02,,,0.02,WUHU216HW,2013-04-24 10:52:00,
2013-04-24 05:57:00,34.6,32.1,30.06,North,354,3.3,5.6,91,0.02,,,0.02,WUHU216HW,2013-04-24 10:57:00,
2013-04-24 06:02:00,34.6,32.1,30.06,North,0,5.4,8.1,91,0.00,,,0.02,WUHU216HW,2013-04-24 11:02:00,
2013-04-24 06:07:00,34.4,32.0,30.06,North,9,4.4,8.1,91,0.00,,,0.02,WUHU216HW,2013-04-24 11:07:00,
2013-04-24 06:12:00,34.4,32.0,30.06,North,1,4.4,7.4,91,0.00,,,0.02,WUHU216HW,2013-04-24 11:12:00,
2013-04-24 06:17:00,34.4,32.0,30.06,North,3,3.3,7.4,91,0.00,,,0.02,WUHU216HW,2013-04-24 11:17:00,
2013-04-24 06:22:00,34.2,31.8,30.06,North,0,3.4,5.8,91,0.00,,,0.02,WUHU216HW,2013-04-24 11:22:00,
2013-04-24 06:27:00,34.4,32.0,30.07,NNW,343,1.5,4.7,91,0.00,,,0.02,WUHU216HW,2013-04-24 11:27:00,
2013-04-24 06:32:00,34.4,32.0,30.06,NW,315,2.2,4.7,91,0.00,,,0.02,WUHU216HW,2013-04-24 11:32:00,
2013-04-24 06:37:00,34.4,32.0,30.06,NW,315,7.2,7.2,91,0.00,,,0.02,WUHU216HW,2013-04-24 11:37:00,
2013-04-24 06:42:00,34.4,32.0,30.07,North,6,4.2,7.2,91,0.00,,,0.02,WUHU216HW,2013-04-24 11:42:00,
2013-04-24 06:47:00,34.2,31.8,30.06,NNW,338,3.1,6.7,91,0.00,,,0.02,WUHU216HW,2013-04-24 11:47:00,
2013-04-24 06:52:00,34.4,32.0,30.07,NW,315,5.4,5.4,91,0.00,,,0.02,WUHU216HW,2013-04-24 11:52:00,
2013-04-24 06:57:00,34.2,31.8,30.08,NW,315,5.8,5.8,91,0.00,,,0.02,WUHU216HW,2013-04-24 11:57:00,
2013-04-24 07:02:00,34.2,31.8,30.08,North,0,4.3,8.5,91,0.00,,,0.02,WUHU216HW,2013-04-24 12:02:00,
2013-04-24 07:07:00,34.4,32.0,30.08,NW,315,3.4,8.5,91,0.00,,,0.02,WUHU216HW,2013-04-24 12:07:00,
2013-04-24 07:12:00,34.4,31.7,30.09,North,355,3.2,5.4,90,0.00,,,0.02,WUHU216HW,2013-04-24 12:12:00,
2013-04-24 07:17:00,34.4,31.7,30.09,North,350,3.5,9.8,90,0.00,,,0.02,WUHU216HW,2013-04-24 12:17:00,
2013-04-24 07:22:00,34.4,31.7,30.10,NW,326,3.1,9.8,90,0.00,,,0.02,WUHU216HW,2013-04-24 12:22:00,
2013-04-24 07:27:00,34.4,32.0,30.10,NW,311,0.9,6.9,91,0.00,,,0.02,WUHU216HW,2013-04-24 12:27:00,
2013-04-24 07:32:00,34.4,32.0,30.10,WNW,293,2.5,4.7,91,0.00,,,0.02,WUHU216HW,2013-04-24 12:32:00,
2013-04-24 07:37:00,34.6,32.1,30.10,NNW,339,2.1,3.8,91,0.00,,,0.02,WUHU216HW,2013-04-24 12:37:00,
2013-04-24 07:42:00,34.7,32.3,30.10,North,0,2.8,5.1,91,0.00,,,0.02,WUHU216HW,2013-04-24 12:42:00,
2013-04-24 07:47:00,35.1,32.7,30.10,North,0,3.6,5.1,91,0.00,,,0.02,WUHU216HW,2013-04-24 12:47:00,
2013-04-24 07:52:00,35.1,32.4,30.09,North,0,5.4,6.3,90,0.00,,,0.02,WUHU216HW,2013-04-24 12:52:00,
2013-04-24 07:57:00,35.3,32.6,30.10,North,0,7.6,9.2,90,0.00,,,0.02,WUHU216HW,2013-04-24 12:57:00,
2013-04-24 08:02:00,35.3,32.6,30.10,North,0,4.9,9.2,90,0.00,,,0.02,WUHU216HW,2013-04-24 13:02:00,
2013-04-24 08:07:00,35.3,32.3,30.11,NNE,23,3.4,7.6,89,0.00,,,0.02,WUHU216HW,2013-04-24 13:07:00,
2013-04-24 08:12:00,35.1,32.1,30.11,NNW,338,4.3,4.3,89,0.00,,,0.02,WUHU216HW,2013-04-24 13:12:00,
2013-04-24 08:17:00,35.3,32.3,30.11,NNW,338,0.9,4.3,89,0.00,,,0.02,WUHU216HW,2013-04-24 13:17:00,
2013-04-24 08:22:00,35.3,32.3,30.10,North,0,2.9,5.4,89,0.00,,,0.02,WUHU216HW,2013-04-24 13:22:00,
2013-04-24 08:27:00,35.3,32.3,30.11,North,0,3.4,5.4,89,0.00,,,0.02,WUHU216HW,2013-04-24 13:27:00,
2013-04-24 08:32:00,35.5,32.2,30.11,WNW,293,2.9,4.7,88,0.00,,,0.02,WUHU216HW,2013-04-24 13:32:00,
2013-04-24 08:37:00,35.3,31.7,30.11,SE,135,4.7,4.7,87,0.00,,,0.02,WUHU216HW,2013-04-24 13:37:00,
2013-04-24 08:42:00,35.5,31.6,30.11,NNW,338,5.1,5.6,86,0.00,,,0.02,WUHU216HW,2013-04-24 13:42:00,
2013-04-24 08:47:00,35.5,31.6,30.11,North,10,3.2,5.6,86,0.00,,,0.02,WUHU216HW,2013-04-24 13:47:00,
2013-04-24 08:52:00,35.5,31.6,30.11,North,0,6.0,6.0,86,0.00,,,0.02,WUHU216HW,2013-04-24 13:52:00,
2013-04-24 08:57:00,35.6,31.8,30.11,North,0,2.2,6.0,86,0.00,,,0.02,WUHU216HW,2013-04-24 13:57:00,
2013-04-24 09:02:00,36.0,32.4,30.11,North,0,2.9,5.4,87,0.00,,,0.02,WUHU216HW,2013-04-24 14:02:00,
2013-04-24 09:07:00,36.2,32.6,30.10,WNW,293,3.8,3.8,87,0.00,,,0.02,WUHU216HW,2013-04-24 14:07:00,
2013-04-24 09:12:00,36.9,33.0,30.10,NW,315,0.6,3.8,86,0.00,,,0.02,WUHU216HW,2013-04-24 14:12:00,
2013-04-24 09:17:00,37.6,33.5,30.10,North,10,2.8,4.0,85,0.00,,,0.02,WUHU216HW,2013-04-24 14:17:00,
2013-04-24 09:22:00,38.9,34.7,30.10,North,0,3.4,4.0,85,0.00,,,0.02,WUHU216HW,2013-04-24 14:22:00,
2013-04-24 09:27:00,39.1,33.8,30.10,North,0,3.7,4.7,81,0.00,,,0.02,WUHU216HW,2013-04-24 14:27:00,
2013-04-24 09:32:00,39.2,34.2,30.10,NNW,338,4.0,4.7,82,0.00,,,0.02,WUHU216HW,2013-04-24 14:32:00,
2013-04-24 09:37:00,39.6,34.3,30.10,NNW,327,1.1,4.0,81,0.00,,,0.02,WUHU216HW,2013-04-24 14:37:00,
2013-04-24 09:42:00,40.7,35.3,30.10,NNW,338,2.5,2.7,81,0.00,,,0.02,WUHU216HW,2013-04-24 14:42:00,
2013-04-24 09:47:00,40.7,34.7,30.10,NNW,336,3.8,5.1,79,0.00,,,0.02,WUHU216HW,2013-04-24 14:47:00,
2013-04-24 09:52:00,40.3,33.9,30.10,North,0,4.9,7.4,78,0.00,,,0.02,WUHU216HW,2013-04-24 14:52:00,
2013-04-24 09:57:00,41.4,34.7,30.09,NNW,338,4.9,7.4,77,0.00,,,0.02,WUHU216HW,2013-04-24 14:57:00,
2013-04-24 10:02:00,41.8,34.4,30.09,NW,325,3.3,4.9,75,0.00,,,0.02,WUHU216HW,2013-04-24 15:02:00,
2013-04-24 10:09:00,42.3,35.6,30.10,North,0,4.5,4.7,77,0.00,,,0.02,WUHU216HW,2013-04-24 15:09:00,
2013-04-24 10:14:00,42.8,33.8,30.10,North,354,5.3,7.8,70,0.00,,,0.02,WUHU216HW,2013-04-24 15:14:00,
2013-04-24 10:19:00,42.8,34.5,30.10,NNW,338,4.9,7.8,72,0.00,,,0.02,WUHU216HW,2013-04-24 15:19:00,
2013-04-24 10:24:00,41.9,33.3,30.10,North,0,5.4,5.4,71,0.00,,,0.02,WUHU216HW,2013-04-24 15:24:00,
2013-04-24 10:29:00,40.7,31.7,30.10,NW,315,2.6,9.8,70,0.00,,,0.02,WUHU216HW,2013-04-24 15:29:00,
2013-04-24 10:34:00,41.0,32.0,30.10,NNE,23,3.4,9.8,70,0.00,,,0.02,WUHU216HW,2013-04-24 15:34:00,
2013-04-24 10:39:00,42.5,33.9,30.10,North,357,3.7,6.5,71,0.00,,,0.02,WUHU216HW,2013-04-24 15:39:00,
2013-04-24 10:44:00,43.6,34.8,30.10,NW,321,2.1,6.3,71,0.00,,,0.02,WUHU216HW,2013-04-24 15:44:00,
2013-04-24 10:49:00,43.9,34.0,30.10,NW,315,5.6,5.6,68,0.00,,,0.02,WUHU216HW,2013-04-24 15:49:00,
2013-04-24 10:54:00,43.4,33.9,30.10,NNW,338,3.6,6.3,69,0.00,,,0.02,WUHU216HW,2013-04-24 15:54:00,
2013-04-24 10:59:00,43.6,33.8,30.10,NNW,332,3.0,6.3,68,0.00,,,0.02,WUHU216HW,2013-04-24 15:59:00,
2013-04-24 11:04:00,43.2,33.4,30.10,NNW,338,2.5,4.3,68,0.00,,,0.02,WUHU216HW,2013-04-24 16:04:00,
2013-04-24 11:09:00,43.4,32.8,30.10,North,351,4.3,7.4,66,0.00,,,0.02,WUHU216HW,2013-04-24 16:09:00,
2013-04-24 11:14:00,44.1,34.2,30.10,North,2,4.5,7.4,68,0.00,,,0.02,WUHU216HW,2013-04-24 16:14:00,
2013-04-24 11:19:00,43.2,33.4,30.11,NNE,23,4.0,6.9,68,0.00,,,0.02,WUHU216HW,2013-04-24 16:19:00,
2013-04-24 11:24:00,43.4,33.6,30.11,NW,305,2.4,6.9,68,0.00,,,0.02,WUHU216HW,2013-04-24 16:24:00,
2013-04-24 11:29:00,44.3,33.2,30.11,WNW,298,2.6,6.9,65,0.00,,,0.02,WUHU216HW,2013-04-24 16:29:00,
2013-04-24 11:34:00,44.6,32.9,30.11,NNW,340,3.8,6.9,63,0.00,,,0.02,WUHU216HW,2013-04-24 16:34:00,
2013-04-24 11:39:00,45.0,31.6,30.12,WSW,248,2.7,6.5,59,0.00,,,0.02,WUHU216HW,2013-04-24 16:39:00,
2013-04-24 11:44:00,45.7,33.9,30.12,NW,315,4.9,6.5,63,0.00,,,0.02,WUHU216HW,2013-04-24 16:44:00,
2013-04-24 11:49:00,45.4,33.5,30.12,WNW,294,2.2,5.4,63,0.00,,,0.02,WUHU216HW,2013-04-24 16:49:00,
2013-04-24 11:54:00,45.4,33.5,30.13,NW,304,1.0,4.9,63,0.00,,,0.02,WUHU216HW,2013-04-24 16:54:00,
2013-04-24 11:59:00,45.9,33.6,30.13,ESE,113,1.8,4.9,62,0.00,,,0.02,WUHU216HW,2013-04-24 16:59:00,
2013-04-24 12:04:00,46.1,33.4,30.13,NW,306,2.1,4.9,61,0.00,,,0.02,WUHU216HW,2013-04-24 17:04:00,
2013-04-24 12:09:00,46.4,34.1,30.13,WNW,293,2.5,6.0,62,0.00,,,0.02,WUHU216HW,2013-04-24 17:09:00,
2013-04-24 12:14:00,46.8,33.7,30.13,North,0,5.4,6.0,60,0.00,,,0.02,WUHU216HW,2013-04-24 17:14:00,
2013-04-24 12:19:00,47.0,33.4,30.13,SW,226,2.4,5.8,59,0.00,,,0.02,WUHU216HW,2013-04-24 17:19:00,
2013-04-24 12:24:00,47.0,32.5,30.13,WSW,240,1.5,4.0,57,0.00,,,0.02,WUHU216HW,2013-04-24 17:24:00,
2013-04-24 12:29:00,46.6,32.6,30.13,West,272,2.7,4.7,58,0.00,,,0.02,WUHU216HW,2013-04-24 17:29:00,
2013-04-24 12:34:00,47.2,34.0,30.13,WNW,303,2.7,4.7,60,0.00,,,0.02,WUHU216HW,2013-04-24 17:34:00,
2013-04-24 12:39:00,47.2,33.6,30.13,NW,326,3.1,4.7,59,0.00,,,0.02,WUHU216HW,2013-04-24 17:39:00,
2013-04-24 12:44:00,47.3,33.3,30.13,West,270,1.6,4.7,58,0.00,,,0.02,WUHU216HW,2013-04-24 17:44:00,
2013-04-24 12:49:00,47.2,34.0,30.13,North,0,5.0,5.1,60,0.00,,,0.02,WUHU216HW,2013-04-24 17:49:00,
2013-04-24 12:54:00,47.7,34.1,30.13,North,0,3.3,5.1,59,0.00,,,0.02,WUHU216HW,2013-04-24 17:54:00,
2013-04-24 12:59:00,48.1,34.0,30.14,SSE,165,1.9,6.7,58,0.00,,,0.02,WUHU216HW,2013-04-24 17:59:00,
2013-04-24 13:04:00,48.1,34.0,30.13,SW,225,1.6,6.7,58,0.00,,,0.02,WUHU216HW,2013-04-24 18:04:00,
2013-04-24 13:09:00,47.9,33.9,30.13,NW,322,4.9,5.4,58,0.00,,,0.02,WUHU216HW,2013-04-24 18:09:00,
2013-04-24 13:14:00,47.9,33.4,30.13,NW,309,0.8,5.4,57,0.00,,,0.02,WUHU216HW,2013-04-24 18:14:00,
2013-04-24 13:19:00,48.4,35.3,30.13,North,1,3.5,3.6,60,0.00,,,0.02,WUHU216HW,2013-04-24 18:19:00,
2013-04-24 13:24:00,48.6,34.5,30.13,West,261,2.3,4.5,58,0.00,,,0.02,WUHU216HW,2013-04-24 18:24:00,
2013-04-24 13:29:00,49.3,34.2,30.13,NNW,338,3.3,4.5,56,0.00,,,0.02,WUHU216HW,2013-04-24 18:29:00,
2013-04-24 13:34:00,49.3,33.8,30.13,North,0,1.6,4.5,55,0.00,,,0.02,WUHU216HW,2013-04-24 18:34:00,
2013-04-24 13:39:00,48.8,33.3,30.13,North,3,1.8,5.6,55,0.00,,,0.02,WUHU216HW,2013-04-24 18:39:00,
2013-04-24 13:44:00,48.6,32.1,30.12,NNW,338,3.4,5.6,53,0.00,,,0.02,WUHU216HW,2013-04-24 18:44:00,
2013-04-24 13:49:00,48.8,32.9,30.12,North,0,4.0,4.7,54,0.00,,,0.02,WUHU216HW,2013-04-24 18:49:00,
2013-04-24 13:54:00,49.1,35.5,30.12,WSW,248,4.0,4.3,59,0.00,,,0.02,WUHU216HW,2013-04-24 18:54:00,
2013-04-24 13:59:00,49.7,35.5,30.12,SW,225,2.8,4.3,58,0.00,,,0.02,WUHU216HW,2013-04-24 18:59:00,
2013-04-24 14:04:00,50.0,34.9,30.11,NW,315,3.4,4.0,56,0.00,,,0.02,WUHU216HW,2013-04-24 19:04:00,
2013-04-24 14:09:00,50.0,35.4,30.11,NNW,344,3.7,4.9,57,0.00,,,0.02,WUHU216HW,2013-04-24 19:09:00,
2013-04-24 14:14:00,49.9,33.8,30.11,NNE,23,3.6,4.9,54,0.00,,,0.02,WUHU216HW,2013-04-24 19:14:00,
2013-04-24 14:19:00,50.0,32.2,30.11,NNW,339,3.2,6.9,50,0.00,,,0.02,WUHU216HW,2013-04-24 19:19:00,
2013-04-24 14:24:00,49.9,32.9,30.11,NNW,338,2.5,7.4,52,0.00,,,0.02,WUHU216HW,2013-04-24 19:24:00,
2013-04-24 14:29:00,49.7,31.9,30.11,NW,304,2.3,7.4,50,0.00,,,0.02,WUHU216HW,2013-04-24 19:29:00,
2013-04-24 14:34:00,50.0,32.2,30.11,NW,315,4.1,4.5,50,0.00,,,0.02,WUHU216HW,2013-04-24 19:34:00,
2013-04-24 14:39:00,50.0,34.0,30.11,WSW,248,3.1,4.5,54,0.00,,,0.02,WUHU216HW,2013-04-24 19:39:00,
2013-04-24 14:44:00,50.4,34.8,30.11,North,0,1.8,3.4,55,0.00,,,0.02,WUHU216HW,2013-04-24 19:44:00,
2013-04-24 14:49:00,50.8,34.7,30.12,NW,308,2.7,3.6,54,0.00,,,0.02,WUHU216HW,2013-04-24 19:49:00,
2013-04-24 14:54:00,50.8,33.3,30.12,NNW,338,4.7,4.7,51,0.00,,,0.02,WUHU216HW,2013-04-24 19:54:00,
2013-04-24 14:59:00,51.3,32.8,30.11,NW,315,4.0,7.2,49,0.00,,,0.02,WUHU216HW,2013-04-24 19:59:00,
2013-04-24 15:04:00,51.1,31.0,30.12,NNW,343,2.0,7.2,46,0.00,,,0.02,WUHU216HW,2013-04-24 20:04:00,
2013-04-24 15:09:00,50.9,33.0,30.11,NW,315,2.0,7.2,50,0.00,,,0.02,WUHU216HW,2013-04-24 20:09:00,
2013-04-24 15:14:00,51.5,32.9,30.12,West,270,3.8,7.2,49,0.00,,,0.02,WUHU216HW,2013-04-24 20:14:00,
2013-04-24 15:19:00,51.7,33.7,30.12,NW,315,3.6,5.6,50,0.00,,,0.02,WUHU216HW,2013-04-24 20:19:00,
2013-04-24 15:24:00,51.8,34.3,30.12,SSW,203,2.5,5.6,51,0.00,,,0.02,WUHU216HW,2013-04-24 20:24:00,
2013-04-24 15:29:00,52.0,34.0,30.12,West,270,2.5,3.6,50,0.00,,,0.02,WUHU216HW,2013-04-24 20:29:00,
2013-04-24 15:34:00,51.8,33.3,30.12,NNW,348,2.8,4.5,49,0.00,,,0.02,WUHU216HW,2013-04-24 20:34:00,
2013-04-24 15:40:00,52.2,33.0,30.12,NW,315,2.7,4.5,48,0.00,,,0.02,WUHU216HW,2013-04-24 20:40:00,
2013-04-24 15:45:00,52.2,33.6,30.12,NNW,336,3.3,4.0,49,0.00,,,0.02,WUHU216HW,2013-04-24 20:45:00,
2013-04-24 15:50:00,52.2,32.5,30.12,SW,225,3.6,4.0,47,0.00,,,0.02,WUHU216HW,2013-04-24 20:50:00,
2013-04-24 15:55:00,52.9,33.1,30.12,NW,315,2.5,3.8,47,0.00,,,0.02,WUHU216HW,2013-04-24 20:55:00,
2013-04-24 16:00:00,53.3,34.0,30.11,WNW,293,2.5,3.8,48,0.00,,,0.02,WUHU216HW,2013-04-24 21:00:00,
2013-04-24 16:05:00,53.6,33.2,30.11,NW,315,1.8,3.6,46,0.00,,,0.02,WUHU216HW,2013-04-24 21:05:00,
2013-04-24 16:10:00,53.5,33.7,30.11,NW,308,2.8,3.6,47,0.00,,,0.02,WUHU216HW,2013-04-24 21:10:00,
2013-04-24 16:15:00,53.3,33.5,30.11,WSW,248,3.8,4.0,47,0.00,,,0.02,WUHU216HW,2013-04-24 21:15:00,
2013-04-24 16:20:00,53.8,33.4,30.11,SSW,210,2.8,4.0,46,0.00,,,0.02,WUHU216HW,2013-04-24 21:20:00,
2013-04-24 16:25:00,54.4,32.8,30.11,NW,325,3.9,4.3,44,0.00,,,0.02,WUHU216HW,2013-04-24 21:25:00,
2013-04-24 16:30:00,53.6,31.6,30.11,SW,222,2.1,4.3,43,0.00,,,0.02,WUHU216HW,2013-04-24 21:30:00,
2013-04-24 16:35:00,53.6,32.1,30.11,SW,225,3.0,4.3,44,0.00,,,0.02,WUHU216HW,2013-04-24 21:35:00,
2013-04-24 16:39:00,53.8,31.7,30.11,NNW,341,3.3,4.3,43,0.00,,,0.02,WUHU216HW,2013-04-24 21:39:00,
2013-04-24 16:44:00,53.6,32.1,30.11,NW,322,2.3,4.0,44,0.00,,,0.02,WUHU216HW,2013-04-24 21:44:00,
2013-04-24 16:49:00,53.8,32.9,30.11,ENE,68,2.0,3.4,45,0.00,,,0.02,WUHU216HW,2013-04-24 21:49:00,
2013-04-24 16:54:00,54.0,31.9,30.11,NNW,341,3.0,4.0,43,0.00,,,0.02,WUHU216HW,2013-04-24 21:54:00,
2013-04-24 16:59:00,53.6,32.7,30.11,NNW,347,3.0,4.0,45,0.00,,,0.02,WUHU216HW,2013-04-24 21:59:00,
2013-04-24 17:04:00,54.4,32.2,30.11,North,0,2.3,6.9,43,0.00,,,0.02,WUHU216HW,2013-04-24 22:04:00,
2013-04-24 17:09:00,55.3,31.9,30.11,WSW,248,1.8,6.9,41,0.00,,,0.02,WUHU216HW,2013-04-24 22:09:00,
2013-04-24 17:14:00,55.6,32.2,30.11,North,0,3.2,3.6,41,0.00,,,0.02,WUHU216HW,2013-04-24 22:14:00,
2013-04-24 17:19:00,55.6,32.2,30.11,WNW,299,3.6,4.9,41,0.00,,,0.02,WUHU216HW,2013-04-24 22:19:00,
2013-04-24 17:24:00,55.1,31.8,30.11,NNE,23,3.1,4.9,41,0.00,,,0.02,WUHU216HW,2013-04-24 22:24:00,
2013-04-24 17:29:00,55.3,33.0,30.11,North,0,1.8,4.0,43,0.00,,,0.02,WUHU216HW,2013-04-24 22:29:00,
2013-04-24 17:34:00,56.0,32.0,30.11,North,0,2.7,3.6,40,0.00,,,0.02,WUHU216HW,2013-04-24 22:34:00,
2013-04-24 17:39:00,55.1,31.8,30.11,North,0,1.7,3.6,41,0.00,,,0.02,WUHU216HW,2013-04-24 22:39:00,
2013-04-24 17:44:00,54.2,32.6,30.11,NW,322,3.8,5.1,44,0.00,,,0.02,WUHU216HW,2013-04-24 22:44:00,
2013-04-24 17:49:00,53.6,32.1,30.11,West,267,2.8,5.1,44,0.00,,,0.02,WUHU216HW,2013-04-24 22:49:00,
2013-04-24 17:54:00,53.1,32.8,30.11,North,0,5.8,5.8,46,0.00,,,0.02,WUHU216HW,2013-04-24 22:54:00,
2013-04-24 17:59:00,52.9,32.6,30.11,North,0,3.6,5.8,46,0.00,,,0.02,WUHU216HW,2013-04-24 22:59:00,
2013-04-24 18:04:00,52.7,31.3,30.11,West,277,1.9,5.4,44,0.00,,,0.02,WUHU216HW,2013-04-24 23:04:00,
2013-04-24 18:09:00,52.6,31.1,30.11,NNW,338,4.9,4.9,44,0.00,,,0.02,WUHU216HW,2013-04-24 23:09:00,
2013-04-24 18:14:00,52.7,30.8,30.11,NW,313,3.7,4.9,43,0.00,,,0.02,WUHU216HW,2013-04-24 23:14:00,
2013-04-24 18:19:00,53.6,32.1,30.11,North,0,3.4,4.0,44,0.00,,,0.02,WUHU216HW,2013-04-24 23:19:00,
2013-04-24 18:24:00,54.0,31.9,30.12,NNW,330,1.9,4.0,43,0.00,,,0.02,WUHU216HW,2013-04-24 23:24:00,
2013-04-24 18:29:00,54.2,31.0,30.12,West,270,2.7,3.4,41,0.00,,,0.02,WUHU216HW,2013-04-24 23:29:00,
2013-04-24 18:34:00,53.5,31.4,30.12,NW,305,1.1,3.4,43,0.00,,,0.02,WUHU216HW,2013-04-24 23:34:00,
2013-04-24 18:39:00,53.8,31.1,30.12,West,270,1.8,2.0,42,0.00,,,0.02,WUHU216HW,2013-04-24 23:39:00,
2013-04-24 18:44:00,54.0,32.4,30.12,WSW,248,0.7,3.1,44,0.00,,,0.02,WUHU216HW,2013-04-24 23:44:00,
2013-04-24 18:49:00,54.2,30.3,30.12,West,270,2.3,3.1,40,0.00,,,0.02,WUHU216HW,2013-04-24 23:49:00,
2013-04-24 18:54:00,54.7,30.9,30.12,NW,315,1.8,2.5,40,0.00,,,0.02,WUHU216HW,2013-04-24 23:54:00,
2013-04-24 18:59:00,54.7,31.4,30.12,NW,315,2.9,2.9,41,0.00,,,0.02,WUHU216HW,2013-04-24 23:59:00,
2013-04-24 19:04:00,54.5,30.0,30.12,NW,315,2.7,2.9,39,0.00,,,0.02,WUHU216HW,2013-04-25 00:04:00,
2013-04-24 19:09:00,53.6,30.4,30.12,NW,313,1.2,2.9,41,0.00,,,0.02,WUHU216HW,2013-04-25 00:09:00,
2013-04-24 19:14:00,52.6,30.6,30.12,North,0,0.7,2.9,43,0.00,,,0.02,WUHU216HW,2013-04-25 00:14:00,
2013-04-24 19:19:00,52.0,30.1,30.12,NW,315,1.1,1.8,43,0.00,,,0.02,WUHU216HW,2013-04-25 00:19:00,
2013-04-24 19:24:00,51.1,29.9,30.12,North,356,0.6,2.2,44,0.00,,,0.02,WUHU216HW,2013-04-25 00:24:00,
2013-04-24 19:29:00,50.2,29.6,30.12,NW,312,0.6,2.2,45,0.00,,,0.02,WUHU216HW,2013-04-25 00:29:00,
2013-04-24 19:34:00,49.5,28.9,30.12,NW,315,0.1,0.9,45,0.00,,,0.02,WUHU216HW,2013-04-25 00:34:00,
2013-04-24 19:39:00,49.1,28.6,30.12,WNW,293,1.1,1.1,45,0.00,,,0.02,WUHU216HW,2013-04-25 00:39:00,
2013-04-24 19:44:00,48.6,28.6,30.12,WNW,293,0.0,1.1,46,0.00,,,0.02,WUHU216HW,2013-04-25 00:44:00,
2013-04-24 19:49:00,48.2,29.3,30.13,WNW,293,0.1,0.7,48,0.00,,,0.02,WUHU216HW,2013-04-25 00:49:00,
2013-04-24 19:54:00,47.9,29.0,30.13,WNW,293,0.0,0.4,48,0.00,,,0.02,WUHU216HW,2013-04-25 00:54:00,
2013-04-24 19:59:00,47.3,29.1,30.13,WNW,293,0.0,0.4,49,0.00,,,0.02,WUHU216HW,2013-04-25 00:59:00,
2013-04-24 20:04:00,47.0,29.3,30.13,WNW,293,0.0,0.0,50,0.00,,,0.02,WUHU216HW,2013-04-25 01:04:00,
2013-04-24 20:09:00,46.3,28.6,30.13,WNW,293,0.0,0.0,50,0.00,,,0.02,WUHU216HW,2013-04-25 01:09:00,
2013-04-24 20:14:00,45.7,28.6,30.13,WNW,293,0.0,0.0,51,0.00,,,0.02,WUHU216HW,2013-04-25 01:14:00,
2013-04-24 20:19:00,45.4,28.7,30.13,WNW,293,0.0,0.0,52,0.00,,,0.02,WUHU216HW,2013-04-25 01:19:00,
2013-04-24 20:24:00,45.0,28.9,30.13,WNW,293,0.0,0.0,53,0.00,,,0.02,WUHU216HW,2013-04-25 01:24:00,
2013-04-24 20:29:00,44.5,28.4,30.13,WNW,293,0.0,0.0,53,0.00,,,0.02,WUHU216HW,2013-04-25 01:29:00,
2013-04-24 20:34:00,44.1,28.9,30.13,WNW,293,0.0,0.0,55,0.00,,,0.02,WUHU216HW,2013-04-25 01:34:00,
2013-04-24 20:39:00,43.9,28.7,30.13,WNW,293,0.0,0.0,55,0.00,,,0.02,WUHU216HW,2013-04-25 01:39:00,
2013-04-24 20:44:00,43.6,29.3,30.13,WNW,293,0.2,0.2,57,0.00,,,0.02,WUHU216HW,2013-04-25 01:44:00,
2013-04-24 20:49:00,43.4,29.1,30.13,WNW,293,0.0,0.4,57,0.00,,,0.02,WUHU216HW,2013-04-25 01:49:00,
2013-04-24 20:54:00,43.2,28.9,30.13,WNW,293,0.0,0.4,57,0.00,,,0.02,WUHU216HW,2013-04-25 01:54:00,
2013-04-24 20:59:00,42.8,28.6,30.14,WNW,293,0.0,0.0,57,0.00,,,0.02,WUHU216HW,2013-04-25 01:59:00,
2013-04-24 21:04:00,42.5,28.3,30.14,WNW,293,0.0,0.0,57,0.00,,,0.02,WUHU216HW,2013-04-25 02:04:00,
2013-04-24 21:09:00,42.1,28.4,30.14,WNW,293,0.0,0.0,58,0.00,,,0.02,WUHU216HW,2013-04-25 02:09:00,
2013-04-24 21:14:00,41.9,28.2,30.15,WNW,293,0.0,0.0,58,0.00,,,0.02,WUHU216HW,2013-04-25 02:14:00,
2013-04-24 21:19:00,41.8,28.4,30.15,WNW,293,0.0,0.0,59,0.00,,,0.02,WUHU216HW,2013-04-25 02:19:00,
2013-04-24 21:24:00,41.4,28.2,30.15,WNW,293,0.0,0.0,59,0.00,,,0.02,WUHU216HW,2013-04-25 02:24:00,
2013-04-24 21:29:00,41.2,28.0,30.16,WNW,293,0.0,0.0,59,0.00,,,0.02,WUHU216HW,2013-04-25 02:29:00,
2013-04-24 21:34:00,40.9,28.1,30.16,WNW,293,0.0,0.0,60,0.00,,,0.02,WUHU216HW,2013-04-25 02:34:00,
2013-04-24 21:39:00,40.7,28.3,30.16,WNW,293,0.0,0.0,61,0.00,,,0.02,WUHU216HW,2013-04-25 02:39:00,
2013-04-24 21:44:00,40.5,28.4,30.15,WNW,293,0.0,0.0,62,0.00,,,0.02,WUHU216HW,2013-04-25 02:44:00,
2013-04-24 21:49:00,40.3,28.3,30.15,WNW,293,0.0,0.0,62,0.00,,,0.02,WUHU216HW,2013-04-25 02:49:00,
2013-04-24 21:54:00,40.1,28.5,30.15,WNW,293,0.0,0.0,63,0.00,,,0.02,WUHU216HW,2013-04-25 02:54:00,
2013-04-24 21:59:00,40.0,28.4,30.15,WNW,293,0.0,0.0,63,0.00,,,0.02,WUHU216HW,2013-04-25 02:59:00,
2013-04-24 22:04:00,40.0,28.4,30.15,WNW,293,0.0,0.0,63,0.00,,,0.02,WUHU216HW,2013-04-25 03:04:00,
2013-04-24 22:09:00,39.6,28.0,30.15,WNW,293,0.0,0.0,63,0.00,,,0.02,WUHU216HW,2013-04-25 03:09:00,
2013-04-24 22:14:00,39.4,27.8,30.16,WNW,293,0.0,0.0,63,0.00,,,0.02,WUHU216HW,2013-04-25 03:14:00,
2013-04-24 22:19:00,39.2,27.6,30.16,WNW,293,0.0,0.0,63,0.00,,,0.02,WUHU216HW,2013-04-25 03:19:00,
2013-04-24 22:24:00,39.1,27.5,30.16,WNW,293,0.0,0.0,63,0.00,,,0.02,WUHU216HW,2013-04-25 03:24:00,
2013-04-24 22:29:00,38.9,27.6,30.16,WNW,293,0.1,0.2,64,0.00,,,0.02,WUHU216HW,2013-04-25 03:29:00,
2013-04-24 22:34:00,38.9,27.6,30.16,WNW,293,0.4,0.4,64,0.00,,,0.02,WUHU216HW,2013-04-25 03:34:00,
2013-04-24 22:39:00,38.7,27.9,30.16,SE,135,0.0,0.4,65,0.00,,,0.02,WUHU216HW,2013-04-25 03:39:00,
2013-04-24 22:44:00,38.5,27.7,30.16,SE,135,0.0,0.4,65,0.00,,,0.02,WUHU216HW,2013-04-25 03:44:00,
2013-04-24 22:49:00,38.5,28.4,30.16,SE,135,0.0,0.0,67,0.00,,,0.02,WUHU216HW,2013-04-25 03:49:00,
2013-04-24 22:54:00,38.3,27.9,30.16,SE,135,0.0,0.0,66,0.00,,,0.02,WUHU216HW,2013-04-25 03:54:00,
2013-04-24 22:59:00,38.2,27.7,30.16,South,180,0.0,0.0,66,0.00,,,0.02,WUHU216HW,2013-04-25 03:59:00,
2013-04-24 23:01:00,38.2,27.7,30.17,South,180,0.0,0.0,66,0.00,,,0.02,WUHU216HW,2013-04-25 04:01:00,
2013-04-24 23:06:00,37.8,29.0,30.17,WSW,248,0.2,0.4,70,0.00,,,0.02,WUHU216HW,2013-04-25 04:06:00,
2013-04-24 23:11:00,37.6,28.8,30.17,WSW,248,0.0,0.4,70,0.00,,,0.02,WUHU216HW,2013-04-25 04:11:00,
2013-04-24 23:16:00,37.3,28.4,30.17,SW,225,0.2,0.2,70,0.00,,,0.02,WUHU216HW,2013-04-25 04:16:00,
2013-04-24 23:21:00,37.1,27.9,30.17,SW,225,0.0,0.2,69,0.00,,,0.02,WUHU216HW,2013-04-25 04:21:00,
2013-04-24 23:26:00,36.9,27.7,30.17,SW,225,0.0,0.0,69,0.00,,,0.02,WUHU216HW,2013-04-25 04:26:00,
2013-04-24 23:31:00,36.7,27.6,30.17,SW,225,0.0,0.0,69,0.00,,,0.02,WUHU216HW,2013-04-25 04:31:00,
2013-04-24 23:36:00,36.5,28.1,30.17,SW,225,0.0,0.0,71,0.00,,,0.02,WUHU216HW,2013-04-25 04:36:00,
2013-04-24 23:41:00,36.4,27.5,30.17,SW,225,0.1,0.4,70,0.00,,,0.02,WUHU216HW,2013-04-25 04:41:00,
2013-04-24 23:46:00,36.4,27.5,30.17,SW,225,0.0,0.4,70,0.00,,,0.02,WUHU216HW,2013-04-25 04:46:00,
2013-04-24 23:51:00,36.2,27.7,30.18,SW,225,0.0,0.0,71,0.00,,,0.02,WUHU216HW,2013-04-25 04:51:00,
2013-04-24 23:56:00,36.0,27.6,30.18,SW,225,0.0,0.0,71,0.00,,,0.02,WUHU216HW,2013-04-25 04:56:00,